Probability
23 35 58 71 71 71 65 65 58 65 58 55 45 45 39 35 29 19 13 16 19 16 16 19 26 19 19 10 10 0 0 0 0 0 0 0 3 3 3 0 0 0 0
23 32 58 61 65 65 58 61 55 52 52 48 39 42 35 26 26 19 16 19 13 13 16 13 19 19 10 3 6 0 0 0 0 0 0 0 0 3 3 3 3 0 0
26 35 45 52 55 58 52 52 52 48 42 35 29 32 35 29 26 23 26 16 10 13 10 6 10 16 13 10 3 0 0 0 0 0 0 0 0 0 0 0 3 0 0
26 35 42 45 48 48 48 52 52 42 42 39 29 26 19 19 16 16 13 16 13 13 13 16 16 13 13 13 3 0 0 0 3 0 0 0 0 0 0 0 0 0 0
29 32 42 45 48 48 45 45 45 39 35 29 29 23 23 23 16 23 16 13 16 19 16 16 13 10 10 3 3 3 3 10 0 0 0 0 0 0 0 0 0 0 0
26 35 39 45 42 42 42 42 45 42 39 39 29 29 23 19 23 19 19 13 19 13 13 13 10 10 13 3 3 3 3 6 0 0 0 0 0 0 3 3 0 0 0
29 35 35 45 39 39 39 42 39 39 39 35 26 26 26 29 19 16 26 23 16 13 13 13 6 6 10 6 3 3 10 0 0 0 0 0 0 0 3 6 3 0 0
29 32 35 39 35 35 35 35 35 35 35 35 29 26 23 19 23 26 23 16 19 13 13 10 6 6 10 6 10 10 3 0 0 0 0 0 0 3 3 6 6 3 3
16 26 26 29 32 32 32 32 32 32 32 35 35 32 29 19 26 26 16 16 13 19 23 19 6 3 3 6 6 3 0 0 0 0 0 0 0 0 3 6 6 6 6
10 13 19 16 19 23 23 26 23 23 26 32 32 19 13 10 16 26 23 19 10 13 13 16 16 10 10 3 6 0 0 0 0 0 0 0 0 0 0 6 6 6 6
6 6 10 13 16 16 13 16 19 19 19 19 13 10 10 6 6 10 6 6 6 13 16 13 6 16 0 0 0 0 0 0 0 0 0 0 0 0 0 0 6 3 6
3 6 6 6 10 10 13 10 10 10 6 3 6 3 0 3 3 6 6 6 6 6 6 13 6 0 0 0 0 0 0 0 0 0 0 0 0 0 3 3 10 6 6
3 3 6 6 6 6 6 6 6 3 3 3 0 0 0 0 0 0 0 0 0 0 0 3 0 0 0 0 0 0 0 0 0 0 0 0 0 0 3 6 13 6 0
3 3 3 6 6 6 6 6 3 3 3 3 0 0 0 0 0 0 0 0 0 0 0 0 0 0 0 0 0 0 0 0 0 0 0 0 0 0 3 6 6 0 0
0 0 0 3 6 6 6 6 6 3 3 3 0 0 0 0 0 0 0 0 0 0 0 0 0 0 0 0 0 0 0 0 0 0 0 0 0 0 0 3 3 3 0
0 0 0 0 3 6 6 3 3 3 3 3 0 0 0 0 0 0 0 0 0 0 0 0 0 0 0 0 0 0 0 0 0 0 0 0 0 0 0 3 3 0 0
0 0 0 0 0 3 3 3 3 3 3 0 0 0 0 0 0 0 0 0 0 0 0 0 0 0 0 0 0 0 0 0 0 0 0 0 0 0 0 0 0 0 0
0 0 0 0 0 3 3 3 3 3 3 0 0 0 0 0 0 0 0 0 0 0 0 0 0 0 0 0 0 0 0 0 0 0 0 0 0 0 0 0 0 0 0
0 0 0 0 0 0 3 3 3 3 3 0 0 0 0 0 0 0 0 0 0 0 0 0 0 0 0 0 0 0 0 0 0 0 0 0 0 0 0 0 0 0 0
0 0 0 0 0 0 0 0 0 0 0 0 0 0 0 0 0 0 0 0 0 0 0 0 0 0 0 0 0 0 0 0 0 0 0 0 0 0 0 0 0 0 0
0 0 0 0 0 0 0 0 0 0 0 0 0 0 0 0 0 0 0 0 0 0 0 0 0 0 0 0 0 0 0 0 0 0 0 0 0 0 0 0 0 0 0
0 0 0 0 0 0 0 0 0 0 0 0 0 0 0 0 0 0 0 0 0 0 0 0 0 0 0 0 0 0 0 0 0 0 0 0 0 0 0 0 0 0 0
0 0 0 0 0 0 0 0 0 0 0 0 0 0 0 0 0 0 0 0 0 0 0 0 0 0 0 0 0 0 0 0 0 0 0 0 0 0 0 0 0 0 0
0 0 0 0 0 0 0 0 0 0 0 0 0 0 0 0 0 0 0 0 0 0 0 0 0 0 0 0 0 0 0 0 0 0 0 0 0 0 0 0 0 0 0
0 0 0 0 0 0 0 0 0 0 0 0 0 0 0 0 0 0 0 0 0 0 0 0 0 0 0 0 0 0 0 0 0 0 0 0 0 0 0 0 0 0 0
0 0 0 0 0 0 0 0 0 0 0 0 0 0 0 0 0 0 0 0 0 0 0 0 0 0 0 0 0 0 0 0 0 0 0 0 0 0 0 0 0 0 0
Height
5877 5877 5878 5879 5880 5880 5881 5881 5882 5882 5883 5883 5883 5883 5883 5883 5883 5883 5882 5882 5881 5881 5881 5880 5880 5879 5879 5878 5878 5877 5877 5876 5876 5876 5875 5875 5874 5874 5873 5873 5873 5872 5872
5874 5875 5876 5877 5878 5879 5879 5880 5880 5881 5881 5881 5881 5881 5881 5881 5881 5881 5881 5880 5880 5879 5879 5879 5878 5878 5877 5877 5876 5875 5875 5874 5874 5873 5873 5873 5872 5872 5871 5871 5870 5870 5870
5872 5873 5874 5875 5876 5876 5877 5877 5878 5878 5879 5879 5879 5879 5880 5879 5879 5879 5879 5878 5878 5877 5877 5877 5876 5875 5875 5874 5874 5873 5872 5872 5871 5871 5870 5870 5869 5869 5869 5868 5868 5867 5867
5869 5870 5871 5872 5873 5874 5874 5875 5876 5876 5876 5877 5877 5877 5877 5877 5877 5877 5876 5876 5875 5875 5875 5874 5873 5873 5872 5872 5871 5870 5869 5869 5868 5868 5867 5867 5866 5866 5866 5865 5865 5864 5864
5865 5867 5868 5869 5870 5871 5872 5872 5873 5873 5874 5874 5874 5874 5874 5874 5874 5874 5874 5873 5873 5872 5872 5871 5871 5870 5869 5868 5868 5867 5866 5866 5865 5864 5864 5863 5863 5863 5862 5862 5861 5861 5860
5862 5864 5865 5866 5867 5868 5869 5869 5870 5870 5871 5871 5871 5872 5872 5871 5871 5871 5871 5870 5870 5869 5869 5868 5867 5867 5866 5865 5864 5863 5863 5862 5862 5861 5860 5860 5859 5859 5858 5858 5858 5857 5857
5858 5860 5861 5863 5864 5865 5866 5866 5867 5867 5868 5868 5868 5868 5868 5868 5868 5868 5867 5867 5866 5866 5865 5864 5863 5863 5862 5861 5860 5860 5859 5858 5858 5857 5856 5856 5855 5855 5854 5854 5853 5853 5853
5854 5856 5857 5859 5860 5861 5862 5863 5863 5864 5864 5864 5865 5865 5865 5865 5864 5864 5863 5863 5862 5862 5861 5860 5859 5859 5858 5857 5856 5855 5855 5854 5853 5853 5852 5852 5851 5850 5850 5849 5849 5848 5848
5850 5852 5853 5855 5856 5857 5858 5859 5860 5860 5860 5861 5861 5861 5861 5860 5860 5860 5859 5859 5858 5857 5857 5856 5855 5854 5853 5852 5851 5851 5850 5849 5848 5848 5847 5846 5846 5845 5845 5844 5844 5843 5843
5845 5847 5849 5851 5852 5853 5854 5855 5855 5856 5856 5857 5857 5857 5857 5856 5856 5856 5855 5855 5854 5853 5852 5851 5850 5849 5848 5847 5846 5845 5844 5843 5843 5842 5841 5840 5840 5839 5839 5838 5838 5837 5837
5841 5843 5844 5846 5848 5849 5850 5850 5851 5852 5852 5852 5853 5853 5852 5852 5852 5851 5851 5850 5849 5848 5847 5846 5845 5843 5842 5841 5840 5839 5838 5837 5836 5836 5835 5834 5834 5833 5833 5832 5832 5831 5831
5836 5838 5840 5842 5843 5844 5845 5846 5847 5847 5848 5848 5848 5848 5848 5847 5847 5846 5845 5845 5844 5843 5841 5840 5839 5837 5835 5834 5833 5832 5832 5831 5830 5829 5828 5828 5827 5826 5826 5825 5825 5824 5824
5830 5833 5835 5836 5838 5839 5840 5841 5842 5842 5843 5843 5843 5843 5842 5842 5841 5840 5840 5839 5838 5837 5835 5834 5833 5831 5829 5828 5827 5826 5825 5824 5823 5822 5821 5821 5820 5819 5819 5818 5818 5817 5817
5825 5827 5829 5831 5833 5834 5835 5836 5837 5837 5837 5837 5838 5837 5837 5836 5835 5835 5834 5833 5832 5831 5829 5828 5826 5824 5823 5821 5820 5819 5818 5817 5816 5815 5814 5813 5813 5812 5811 5811 5810 5809 5809
5819 5822 5824 5825 5827 5828 5829 5830 5831 5831 5832 5831 5831 5831 5831 5830 5829 5828 5827 5826 5825 5824 5823 5822 5820 5818 5817 5815 5813 5812 5811 5810 5809 5808 5807 5806 5805 5804 5803 5803 5802 5801 5800
5813 5816 5818 5820 5821 5822 5823 5824 5825 5825 5825 5825 5824 5824 5824 5823 5822 5822 5821 5820 5819 5818 5817 5815 5813 5812 5810 5808 5806 5805 5803 5802 5801 5800 5799 5798 5797 5796 5795 5794 5794 5793 5792
5807 5810 5812 5813 5815 5816 5817 5818 5818 5819 5819 5819 5818 5817 5817 5816 5816 5815 5814 5814 5812 5811 5810 5808 5806 5805 5803 5801 5799 5797 5796 5794 5793 5792 5791 5790 5788 5788 5787 5786 5785 5784 5783
5801 5803 5805 5807 5808 5809 5810 5811 5811 5812 5812 5812 5811 5811 5810 5809 5809 5808 5808 5807 5805 5804 5803 5801 5799 5798 5796 5794 5792 5791 5789 5787 5786 5784 5783 5781 5780 5779 5778 5777 5776 5775 5774
5795 5797 5799 5800 5802 5803 5804 5804 5805 5805 5805 5805 5804 5804 5803 5802 5801 5801 5800 5799 5798 5797 5796 5794 5792 5791 5789 5787 5785 5783 5781 5780 5778 5777 5775 5773 5772 5770 5769 5768 5767 5765 5764
5788 5790 5792 5794 5795 5796 5797 5797 5798 5798 5797 5797 5797 5796 5795 5795 5794 5794 5793 5792 5791 5790 5788 5787 5785 5784 5782 5780 5778 5776 5774 5772 5770 5768 5767 5765 5763 5762 5760 5759 5757 5756 5754
5782 5784 5785 5787 5788 5789 5790 5791 5791 5791 5790 5789 5789 5788 5788 5787 5787 5786 5785 5784 5783 5782 5781 5779 5778 5776 5774 5772 5770 5768 5766 5764 5762 5760 5758 5756 5754 5752 5751 5749 5747 5746 5744
5776 5777 5779 5780 5781 5782 5783 5783 5784 5783 5783 5782 5781 5781 5780 5780 5779 5778 5777 5776 5775 5774 5773 5771 5769 5768 5766 5764 5762 5760 5758 5756 5753 5751 5748 5747 5745 5743 5741 5739 5738 5736 5734
5769 5771 5772 5774 5775 5775 5776 5776 5776 5775 5775 5774 5774 5773 5773 5772 5771 5770 5769 5768 5767 5766 5764 5763 5761 5759 5757 5755 5753 5751 5749 5747 5745 5742 5739 5737 5735 5734 5732 5730 5728 5726 5724
5763 5764 5765 5766 5767 5768 5769 5769 5768 5768 5767 5767 5766 5766 5765 5764 5763 5762 5761 5760 5758 5757 5755 5754 5752 5750 5748 5746 5744 5742 5740 5738 5736 5734 5731 5728 5726 5724 5722 5720 5718 5716 5714
5756 5757 5758 5759 5760 5760 5761 5761 5760 5760 5759 5759 5758 5757 5756 5755 5754 5753 5752 5750 5749 5748 5746 5744 5743 5740 5739 5737 5735 5732 5730 5728 5726 5724 5722 5720 5717 5715 5713 5711 5709 5706 5704
5749 5750 5751 5751 5752 5752 5753 5753 5752 5751 5751 5750 5749 5748 5747 5746 5745 5744 5742 5741 5739 5738 5736 5734 5732 5730 5729 5727 5725 5723 5721 5719 5717 5714 5712 5710 5708 5706 5704 5701 5699 5696 5694
Wind_Speed
12 11 11 10 10 9 9 9 9 9 9 10 10 10 10 9 9 9 9 10 10 10 10 10 11 11 11 11 11 11 11 11 12 12 12 12 12 12 12 12 12 12 12
14 13 12 11 11 11 11 10 10 11 11 11 11 11 11 11 11 12 12 12 11 12 12 12 12 13 13 13 13 13 13 13 13 14 14 13 13 14 14 14 14 14 14
16 14 13 13 13 13 13 12 12 12 12 12 12 13 13 13 13 13 13 13 13 13 14 14 14 14 15 15 15 15 16 16 15 15 16 16 15 15 15 16 16 16 16
17 16 15 15 14 14 14 14 14 14 14 14 14 14 14 14 14 15 15 15 15 15 16 16 16 16 17 17 17 17 18 18 18 18 18 17 17 17 17 17 17 17 17
18 18 17 16 16 15 15 15 15 15 15 15 15 16 16 16 16 16 16 16 16 17 17 17 18 18 18 18 18 18 18 19 19 19 19 19 19 19 19 19 18 18 18
19 19 18 18 17 17 16 16 16 16 16 16 17 17 17 17 17 17 17 18 18 19 19 19 19 20 20 20 20 19 20 19 19 19 19 20 20 20 21 21 20 20 20
21 20 19 19 18 18 17 17 17 17 17 18 18 18 18 19 19 19 19 20 20 20 20 21 21 21 21 21 21 20 20 20 20 21 21 21 21 22 22 22 22 22 22
22 21 21 20 20 19 19 19 19 18 18 19 19 19 20 20 21 21 21 21 21 21 22 22 22 22 22 22 22 22 23 23 23 23 24 24 24 24 24 24 24 24 24
23 23 22 22 21 21 20 20 20 20 20 20 20 20 21 21 21 22 22 22 22 22 22 23 23 24 24 24 24 24 25 25 26 26 26 26 27 27 27 27 27 27 27
24 24 23 22 22 22 21 21 20 20 21 21 21 21 21 21 22 22 22 23 23 23 24 24 24 25 26 26 27 27 27 27 28 28 28 28 28 28 29 29 29 29 29
26 25 24 24 23 23 22 22 21 22 22 22 22 22 22 22 23 23 24 24 25 25 25 26 26 27 27 28 28 28 29 29 29 29 29 29 30 30 30 30 31 30 30
27 26 26 25 24 24 23 23 23 23 23 23 23 23 24 24 25 25 25 26 26 26 27 27 27 28 28 28 29 29 30 30 30 30 30 31 31 31 31 31 31 32 32
28 27 27 26 25 25 24 24 24 24 24 25 25 25 26 26 26 26 26 27 27 28 28 29 29 29 29 29 30 31 31 31 31 31 32 32 32 32 32 32 33 33 34
29 28 28 27 26 26 26 26 26 26 26 27 27 27 27 28 28 28 28 28 28 29 29 29 29 30 30 31 31 32 32 33 33 32 33 33 33 33 33 34 34 35 36
30 29 28 28 28 28 28 27 27 28 28 28 29 29 29 29 29 29 29 29 29 29 30 30 31 31 31 32 33 33 34 34 34 34 34 34 33 34 35 35 36 36 37
30 30 29 29 29 29 29 29 29 29 29 30 30 30 30 30 30 30 30 30 30 30 31 31 32 32 32 33 33 34 33 34 34 34 34 35 35 35 35 36 36 37 38
31 31 30 30 30 30 30 30 30 30 30 31 31 30 31 31 31 31 31 31 31 31 32 32 32 32 32 32 32 33 33 33 33 34 34 34 35 35 36 37 37 38 39
31 31 31 31 31 30 30 30 30 30 30 31 32 32 32 32 32 32 32 32 32 32 32 32 31 31 31 32 32 32 33 34 33 33 34 34 35 36 37 37 37 38 39
30 31 31 31 30 30 30 30 30 31 31 32 32 32 32 31 32 32 31 32 32 32 32 32 31 31 32 32 33 33 33 33 33 34 35 36 36 36 37 37 37 38 38
30 31 31 31 30 30 30 30 31 31 32 32 32 32 33 32 32 32 32 31 32 32 33 32 32 33 33 33 33 33 33 34 34 35 36 37 37 37 38 38 38 38 38
30 30 30 30 30 30 30 31 31 32 32 33 33 33 33 33 33 33 32 32 32 32 33 33 34 34 34 34 34 35 35 35 36 36 37 37 37 38 38 39 39 39 39
30 30 30 30 30 31 31 31 31 32 32 33 34 34 33 33 33 33 33 34 34 34 34 34 35 35 35 35 36 36 36 35 36 37 37 37 37 37 37 37 38 39 39
30 30 30 31 31 32 32 32 32 32 32 33 32 33 34 34 34 34 34 35 35 35 36 36 36 37 37 37 37 37 36 36 36 36 37 37 37 37 36 37 37 39 39
29 30 31 31 32 32 32 33 33 34 34 34 34 35 35 36 36 36 36 37 36 36 37 37 38 38 38 38 38 38 37 37 37 37 37 37 37 37 37 37 38 39 39
30 30 32 32 32 33 33 33 34 35 35 36 36 36 36 37 37 37 38 38 38 39 39 39 39 39 39 39 38 38 38 37 37 37 36 36 37 37 37 38 39 39 39
31 31 31 32 33 34 34 34 35 35 36 36 37 37 36 36 37 38 38 39 39 40 40 40 40 40 40 39 38 38 37 37 37 37 36 36 36 37 37 38 39 39 39
Wind_Direction
235 235 236 238 241 243 247 251 255 259 263 270 275 279 281 283 286 287 287 286 286 286 286 286 286 286 286 285 284 282 281 280 279 279 278 276 275 275 276 275 275 275 276
234 236 239 241 244 248 252 255 259 262 265 268 272 276 278 280 282 284 285 286 285 285 285 286 285 285 285 284 283 282 281 280 280 279 279 278 277 276 276 275 274 274 275
236 237 240 243 246 250 254 257 260 263 266 268 271 274 277 279 281 282 283 285 285 284 283 283 284 284 284 284 283 281 280 280 280 279 279 278 278 278 277 276 275 274 274
237 238 241 246 249 252 256 259 260 262 265 267 269 273 276 278 280 283 283 283 283 283 284 283 284 284 284 284 283 282 281 280 279 279 278 277 277 278 278 277 276 275 274
238 240 243 247 251 254 256 259 260 262 264 266 268 272 275 278 280 282 282 283 284 284 284 284 285 285 285 284 283 283 282 281 280 279 279 278 277 277 278 277 277 276 275
238 241 244 247 251 254 258 260 262 264 265 266 269 271 274 276 278 279 281 282 283 284 284 284 285 285 285 284 283 282 281 281 279 278 278 278 278 278 278 277 276 276 275
240 243 245 247 250 253 257 260 263 265 267 268 269 271 273 275 277 278 280 282 283 283 284 284 285 285 285 284 283 282 280 280 279 278 277 278 278 278 278 277 276 276 275
240 244 246 248 251 254 257 260 263 266 268 269 270 272 273 275 276 278 280 282 283 284 284 284 285 285 284 283 282 281 281 280 280 279 279 278 278 278 278 278 277 276 276
240 244 247 249 251 254 257 260 264 267 269 270 271 273 274 275 276 279 281 282 284 285 285 285 285 285 284 283 282 281 281 281 280 280 280 279 278 278 278 278 277 276 275
239 243 247 250 252 254 257 260 263 267 268 269 271 273 274 275 276 279 281 282 283 285 285 285 285 284 283 283 282 282 281 281 281 280 280 279 279 278 278 278 277 276 275
240 243 246 250 253 255 257 260 263 266 267 269 271 273 275 276 277 279 280 281 282 284 284 284 284 284 283 282 282 281 281 281 281 281 280 279 279 279 279 278 277 277 276
241 244 246 250 253 255 257 260 263 265 267 269 272 273 275 276 277 278 279 280 282 283 283 284 285 285 284 282 281 281 281 281 281 281 281 280 279 279 279 279 278 276 275
242 244 247 249 253 256 258 260 262 265 268 270 271 273 275 276 277 278 279 280 281 282 283 284 286 285 285 284 283 282 281 281 281 281 280 280 279 279 279 278 277 277 276
242 244 246 250 252 256 259 261 262 265 268 270 272 273 275 275 276 277 278 279 281 282 284 286 287 286 285 285 284 283 282 281 280 280 280 279 279 279 279 279 278 277 276
243 245 247 251 253 256 259 261 262 264 267 270 272 274 275 275 276 277 278 279 280 281 283 285 286 286 285 285 284 283 282 281 280 280 279 279 278 278 279 279 279 279 278
243 245 248 251 254 256 258 260 262 265 267 271 273 273 275 276 276 277 277 278 279 281 283 284 286 287 286 285 285 284 282 280 280 281 280 279 278 279 279 280 280 279 278
244 247 250 252 254 256 259 261 262 265 268 271 274 275 275 276 276 276 277 278 279 281 283 284 285 286 286 285 285 285 283 282 281 282 283 282 280 279 279 279 279 279 277
246 248 251 253 255 257 259 261 263 266 268 270 272 274 275 275 276 277 278 278 280 281 282 283 285 286 287 287 287 287 286 283 282 283 283 283 282 281 280 279 279 278 276
248 250 251 253 255 257 259 261 264 266 269 271 272 274 275 275 275 277 278 279 280 281 282 284 284 285 285 286 287 287 287 286 284 282 283 283 283 283 283 281 280 278 277
249 250 252 254 255 257 259 262 265 268 269 271 272 274 274 275 276 277 278 279 281 282 283 284 284 285 286 286 287 287 287 287 285 284 284 285 284 284 284 283 281 279 278
251 251 252 253 255 257 260 263 265 267 269 271 271 273 274 274 275 277 277 279 280 281 282 282 284 285 285 287 287 287 288 288 287 287 286 285 285 284 283 282 280 279 277
251 252 251 253 256 259 261 263 266 268 269 270 271 271 273 274 275 276 277 279 280 281 282 282 283 284 285 287 287 287 288 287 288 288 287 285 285 284 283 282 281 280 278
251 251 252 255 257 259 261 263 265 268 270 271 270 272 273 274 274 276 278 280 281 281 282 283 284 284 286 286 286 287 287 287 287 287 286 285 285 284 284 283 282 282 280
251 252 253 256 258 259 261 264 266 268 270 271 271 272 274 275 276 277 279 279 280 280 281 282 283 284 284 284 286 286 286 286 286 286 286 286 285 284 284 284 284 284 282
252 254 254 256 258 259 261 265 267 269 270 271 272 273 273 275 277 279 280 281 281 281 282 282 282 283 284 284 285 285 285 285 285 285 286 285 285 284 284 285 285 285 283
253 255 257 258 260 261 263 267 269 270 270 271 272 273 275 276 278 280 281 281 281 282 282 282 282 282 282 282 282 283 283 284 284 285 285 285 285 285 285 286 286 285 284